• In Belgium
  • List of Countries
  • For 7 days
  • Water Temperature
  • Satellite Maps
  • Weather Map
  • Weather Widgets
  • user-avatar
    Login

    Hourly Weather Zelenchukskaya

    Today, 19 October, Friday

    Time Temperature Precipitation Wind Pressure Humidity
    00:00 +13°C° 0 mm 2 mps 681 mmHg 75%
    01:00 +13°C° 0 mm 2 mps 681 mmHg 75%
    02:00 +13°C° 0 mm 2 mps 681 mmHg 74%
    03:00 +12°C° 0 mm 2 mps 681 mmHg 75%
    04:00 +12°C° 0 mm 2 mps 681 mmHg 73%
    05:00 +12°C° 0 mm 2 mps 681 mmHg 71%
    06:00 +12°C° 0 mm 2 mps 681 mmHg 69%
    07:00 +14°C° 0 mm 1 mps 682 mmHg 62%
    08:00 +16°C° 0 mm 1 mps 682 mmHg 55%
    09:00 +20°C° 0 mm 1 mps 683 mmHg 48%
    10:00 +21°C° 0 mm 1 mps 683 mmHg 44%
    11:00 +22°C° 0 mm 1 mps 683 mmHg 39%
    12:00 +23°C° 0 mm 1 mps 683 mmHg 35%
    13:00 +23°C° 0 mm 2 mps 683 mmHg 36%
    14:00 +23°C° 0 mm 2 mps 683 mmHg 38%
    15:00 +23°C° 0 mm 2 mps 683 mmHg 39%
    16:00 +20°C° 0 mm 1 mps 682 mmHg 48%
    17:00 +18°C° 0 mm 1 mps 681 mmHg 58%
    18:00 +14°C° 0 mm 1 mps 681 mmHg 67%
    19:00 +14°C° 0 mm 1 mps 681 mmHg 68%
    20:00 +14°C° 0 mm 1 mps 681 mmHg 68%
    21:00 +13°C° 0 mm 2 mps 681 mmHg 68%
    22:00 +13°C° 0 mm 2 mps 681 mmHg 67%
    23:00 +13°C° 0 mm 2 mps 680 mmHg 65%

    Tomorrow, 20 October, Saturday

    Time Temperature Precipitation Wind Pressure Humidity
    00:00 +13°C° 0 mm 2 mps 680 mmHg 64%
    01:00 +13°C° 0 mm 2 mps 680 mmHg 60%
    02:00 +12°C° 0 mm 2 mps 680 mmHg 56%
    03:00 +12°C° 0 mm 2 mps 680 mmHg 53%
    04:00 +12°C° 0 mm 2 mps 680 mmHg 50%
    05:00 +12°C° 0 mm 2 mps 680 mmHg 46%
    06:00 +12°C° 0 mm 2 mps 680 mmHg 43%
    07:00 +14°C° 0 mm 2 mps 681 mmHg 41%
    08:00 +16°C° 0 mm 1 mps 681 mmHg 38%
    09:00 +19°C° 0 mm 1 mps 682 mmHg 36%
    10:00 +20°C° 0 mm 1 mps 682 mmHg 34%
    11:00 +22°C° 0 mm 1 mps 682 mmHg 32%
    12:00 +23°C° 0 mm 1 mps 682 mmHg 29%
    13:00 +23°C° 0 mm 1 mps 682 mmHg 32%
    14:00 +21°C° 0 mm 2 mps 682 mmHg 35%
    15:00 +21°C° 0 mm 2 mps 681 mmHg 37%
    16:00 +19°C° 0 mm 2 mps 681 mmHg 45%
    17:00 +18°C° 0 mm 1 mps 680 mmHg 53%
    18:00 +14°C° 0 mm 1 mps 680 mmHg 61%
    19:00 +14°C° 0 mm 1 mps 680 mmHg 62%
    20:00 +14°C° 0 mm 1 mps 680 mmHg 63%
    21:00 +13°C° 0 mm 1 mps 680 mmHg 64%
    22:00 +13°C° 0 mm 1 mps 679 mmHg 64%
    23:00 +13°C° 0 mm 2 mps 679 mmHg 64%

    Day after tomorrow, 21 October, Sunday

    Time Temperature Precipitation Wind Pressure Humidity
    00:00 +13°C° 0 mm 2 mps 679 mmHg 64%
    01:00 +13°C° 0 mm 2 mps 679 mmHg 63%
    02:00 +13°C° 0 mm 2 mps 679 mmHg 62%
    03:00 +13°C° 0 mm 2 mps 679 mmHg 61%
    04:00 +12°C° 0 mm 2 mps 678 mmHg 61%
    05:00 +12°C° 0 mm 2 mps 678 mmHg 61%
    06:00 +12°C° 0 mm 1 mps 678 mmHg 61%
    07:00 +14°C° 0 mm 1 mps 679 mmHg 57%
    08:00 +16°C° 0 mm 1 mps 679 mmHg 54%
    09:00 +18°C° 0 mm 1 mps 679 mmHg 50%
    10:00 +19°C° 0 mm 1 mps 680 mmHg 47%
    11:00 +20°C° 0 mm 2 mps 680 mmHg 44%
    12:00 +21°C° 0 mm 2 mps 680 mmHg 41%
    13:00 +21°C° 0.1 mm 2 mps 679 mmHg 43%
    14:00 +21°C° 0.1 mm 2 mps 679 mmHg 44%
    15:00 +20°C° 0.1 mm 2 mps 679 mmHg 46%
    16:00 +19°C° 0.1 mm 2 mps 679 mmHg 53%
    17:00 +18°C° 0.1 mm 1 mps 678 mmHg 60%
    18:00 +15°C° 0.1 mm 1 mps 678 mmHg 67%
    19:00 +15°C° 0 mm 1 mps 678 mmHg 69%
    20:00 +14°C° 0 mm 1 mps 678 mmHg 70%
    21:00 +14°C° 0 mm 1 mps 678 mmHg 71%
    22:00 +14°C° 0 mm 1 mps 678 mmHg 71%
    23:00 +14°C° 0 mm 1 mps 678 mmHg 71%

    22 October, Monday

    Time Temperature Precipitation Wind Pressure Humidity
    00:00 +13°C° 0 mm 1 mps 678 mmHg 71%
    01:00 +13°C° 0.1 mm 1 mps 678 mmHg 72%
    02:00 +13°C° 0.1 mm 1 mps 678 mmHg 72%
    03:00 +13°C° 0.1 mm 1 mps 678 mmHg 72%
    04:00 +13°C° 0.3 mm 1 mps 678 mmHg 74%
    05:00 +13°C° 0.3 mm 1 mps 678 mmHg 75%
    06:00 +13°C° 0.3 mm 1 mps 678 mmHg 77%
    07:00 +13°C° 0.4 mm 1 mps 678 mmHg 77%
    08:00 +14°C° 0.4 mm 1 mps 678 mmHg 77%
    09:00 +14°C° 0.4 mm 1 mps 679 mmHg 77%
    10:00 +15°C° 0.4 mm 2 mps 679 mmHg 78%
    11:00 +15°C° 0.4 mm 2 mps 679 mmHg 78%
    12:00 +15°C° 0.4 mm 2 mps 680 mmHg 78%
    13:00 +16°C° 0.3 mm 2 mps 680 mmHg 76%
    14:00 +16°C° 0.3 mm 2 mps 679 mmHg 74%
    15:00 +17°C° 0.3 mm 2 mps 679 mmHg 72%
    16:00 +15°C° 0.1 mm 2 mps 679 mmHg 78%
    17:00 +14°C° 0.1 mm 2 mps 679 mmHg 85%
    18:00 +12°C° 0.1 mm 2 mps 679 mmHg 92%
    19:00 +12°C° 0 mm 2 mps 679 mmHg 89%
    20:00 +12°C° 0 mm 2 mps 679 mmHg 87%
    21:00 +10°C° 0 mm 2 mps 679 mmHg 85%
    22:00 +10°C° 0 mm 2 mps 679 mmHg 81%
    23:00 +10°C° 0 mm 2 mps 678 mmHg 78%

    23 October, Tuesday

    Time Temperature Precipitation Wind Pressure Humidity
    00:00 +10°C° 0 mm 2 mps 678 mmHg 75%
    01:00 +10°C° 0 mm 2 mps 678 mmHg 72%
    02:00 +10°C° 0 mm 2 mps 678 mmHg 69%
    03:00 +10°C° 0 mm 2 mps 678 mmHg 66%
    04:00 +10°C° 0 mm 2 mps 678 mmHg 66%
    05:00 +10°C° 0 mm 2 mps 678 mmHg 65%
    06:00 +10°C° 0 mm 2 mps 678 mmHg 64%
    07:00 +13°C° 0 mm 2 mps 678 mmHg 61%
    08:00 +15°C° 0 mm 2 mps 678 mmHg 57%
    09:00 +16°C° 0 mm 2 mps 679 mmHg 54%
    10:00 +18°C° 0 mm 2 mps 679 mmHg 50%
    11:00 +19°C° 0 mm 2 mps 679 mmHg 46%
    12:00 +21°C° 0 mm 2 mps 679 mmHg 42%
    13:00 +20°C° 0.1 mm 3 mps 679 mmHg 43%
    14:00 +20°C° 0.1 mm 3 mps 679 mmHg 44%
    15:00 +20°C° 0.1 mm 3 mps 679 mmHg 45%
    16:00 +18°C° 0 mm 2 mps 678 mmHg 53%
    17:00 +16°C° 0 mm 2 mps 678 mmHg 60%
    18:00 +14°C° 0 mm 2 mps 678 mmHg 68%
    19:00 +14°C° 0 mm 2 mps 677 mmHg 67%
    20:00 +13°C° 0 mm 2 mps 677 mmHg 66%
    21:00 +13°C° 0 mm 2 mps 677 mmHg 65%
    22:00 +13°C° 0 mm 2 mps 677 mmHg 63%
    23:00 +13°C° 0 mm 2 mps 677 mmHg 60%

    24 October, Wednesday

    Time Temperature Precipitation Wind Pressure Humidity
    00:00 +13°C° 0 mm 2 mps 677 mmHg 58%
    01:00 +13°C° 0 mm 2 mps 676 mmHg 57%
    02:00 +13°C° 0 mm 2 mps 676 mmHg 56%
    03:00 +13°C° 0 mm 2 mps 676 mmHg 55%
    04:00 +12°C° 0 mm 2 mps 676 mmHg 54%
    05:00 +12°C° 0 mm 2 mps 675 mmHg 54%
    06:00 +12°C° 0 mm 2 mps 675 mmHg 54%
    07:00 +14°C° 0 mm 2 mps 675 mmHg 52%
    08:00 +16°C° 0 mm 2 mps 675 mmHg 50%
    09:00 +17°C° 0 mm 3 mps 675 mmHg 48%
    10:00 +19°C° 0 mm 3 mps 675 mmHg 44%
    11:00 +21°C° 0 mm 3 mps 675 mmHg 40%
    12:00 +22°C° 0 mm 3 mps 675 mmHg 36%
    13:00 +22°C° 0 mm 3 mps 675 mmHg 37%
    14:00 +22°C° 0 mm 4 mps 674 mmHg 38%
    15:00 +22°C° 0 mm 4 mps 674 mmHg 40%
    16:00 +20°C° 0 mm 4 mps 673 mmHg 47%
    17:00 +17°C° 0 mm 3 mps 673 mmHg 54%
    18:00 +14°C° 0 mm 3 mps 673 mmHg 61%
    19:00 +14°C° 0.1 mm 3 mps 673 mmHg 63%
    20:00 +14°C° 0.1 mm 2 mps 673 mmHg 66%
    21:00 +13°C° 0.1 mm 2 mps 673 mmHg 69%
    22:00 +13°C° 0.5 mm 2 mps 673 mmHg 71%
    23:00 +12°C° 0.5 mm 3 mps 673 mmHg 73%
    Show more